www.pogodaiklimat.ru

Погода и климат >> Архив погоды >> Лаос >> Аттапы


ПОГОДА в Аттапы

  • Прогноз погоды в Аттапы
  • Монитор погоды в Аттапы

АРХИВ ПОГОДЫ в Аттапы

Время (UTC), дата Ветер
(напр.,м/с)
 
Видим.   Явления Облачность Т
(С)
Тd
(С)
f
(%)
Тe
(С)
Тes
(С)
Комфортность P
(гПа)
Po
(гПа)
Тmin
(С)
Tmax
(С)
R
(мм)
R24
(мм)
S
(см)
00 19.05 Ю 1 8000 м дымка 5/4 600 м
[Cu med, cong Ci sp]
+29.5 +25.7 80 +44 +46 опасность
перегрева
1007.3 996.7 +29.0
03 19.05 Ю 1 12 км 3/3 600 м
[Cu hum Ci fib]
+32.8 +25.5 66 +48 +62 опасность
перегрева
1008.2 997.7
06 19.05 ЮЗ 2 15 км 5/4 600 м
[Cu med, cong Ci sp]
+36.2 +24.7 52 +49 +61 опасность
перегрева
1005.8 995.3
09 19.05 Ю 2 15 км 5/4 600 м
[Cu med, cong Ci sp]
+37.0 +25.0 50 +50 +53 опасность
перегрева
1002.7 992.4
00 20.05 ЮЗ 2 12 км 3/3 600 м
[Cu hum Ci fib]
+29.0 +25.2 80 +42 +44 опасность
перегрева
1007.6 997.0 +28.7
03 20.05 Ю 4 12 км 4/3 600 м
[Cu hum Ci fib]
+33.0 +25.3 64 +47 +55 опасность
перегрева
1008.4 997.9
06 20.05 Ю 1 15 км 4/3 600 м
[Cu hum Ci fib]
+36.5 +25.3 53 +51 +67 опасность
перегрева
1006.1 995.7
09 20.05 Ю 1 15 км 6/4 600 м
[Cu med, cong Ac trans Ci sp]
+35.2 +25.9 59 +51 +54 опасность
перегрева
1003.0 992.7
00 21.05 Ю 2 8000 м дымка 10/8 600 м
[Cu Sc Ac As]
+28.5 +25.7 85 +42 +43 опасность
перегрева
1007.9 997.4 +28.3
03 21.05 ЮЗ 1 8000 м слаб. дождь 10/8 600 м
[Cu Sc Ac As]
+24.8 +23.6 93 +34 +35 очень
душно
1010.0 999.2 17
06 21.05 ЮЗ 1 15 км 8/5 600 м
[Cu med, cong Ac lent Ci sp]
+26.5 +24.3 88 +37 +45 очень
душно
1008.0 997.3 20
09 21.05 С 1 15 км 9/6 600 м
[Cu Sc Ac As]
+30.2 +25.0 74 +44 +45 опасность
перегрева
1005.8 995.2
12 21.05 штиль 0 3000 м дымка {туман} 9/6 600 м
[Cu Sc Ac As]
+28.2 +24.3 79 +39 +39 очень
душно
1006.4 995.7 +30.2 38
00 22.05 штиль 0 8000 м дымка 10/8 600 м
[Cu Sc Ac As]
+26.5 +24.3 88 +37 +37 очень
душно
1008.1 997.4 +26.2 38
03 22.05 СВ 1 8000 м мгла {туман} 5/4 600 м
[Cu med, cong Ci sp]
+30.6 +25.5 74 +45 +57 опасность
перегрева
1008.9 998.3
06 22.05 ЮВ 1 10 км 5/4 600 м
[Cu med, cong Ci sp]
+34.3 +25.5 60 +49 +63 опасность
перегрева
1006.6 996.2
09 22.05 Ю 1 8000 м мгла {туман} 9/6 600 м
[Cu Sc Ac As]
+29.0 +23.6 73 +40 +41 очень
душно
1006.4 995.8
12 22.05 Ю 1 4000 м дымка {туман} 8/5 600 м
[Cu med, cong Ac lent Ci sp]
+26.0 +23.1 84 +35 +35 очень
душно
1007.5 996.8 +30.0
00 23.05 Ю 1 8000 м дымка 8/5 600 м
[Cu med, cong Ac lent Ci sp]
+25.8 +24.4 92 +36 +37 очень
душно
1008.1 997.4 +25.0
03 23.05 ЮВ 1 15 км 3/3 600 м
[Cu hum Ci fib]
+30.2 +24.3 71 +42 +57 опасность
перегрева
1009.6 999.0
06 23.05 Ю 1 17 км 5/4 600 м
[Cu med, cong Ci sp]
+33.5 +24.0 58 +45 +59 опасность
перегрева
1007.4 996.9
09 23.05 ЮЗ 1 17 км 6/4 600 м
[Cu med, cong Ac trans Ci sp]
+35.2 +24.5 54 +48 +51 опасность
перегрева
1004.0 993.6
12 23.05 ЮЗ 2 3000 м слаб. морось {туман} 10/8 600 м
[Cu Sc Ac As]
+28.3 +23.4 75 +38 +38 очень
душно
1007.0 996.4 +35.5
00 24.05 штиль 0 12 км 9/6 600 м
[Cu Sc Ac As]
+25.2 +24.2 94 +35 +36 очень
душно
1008.7 998.0 +25.0 18
03 24.05 СВ 1 12 км 9/6 600 м
[Cu Sc Ac As]
+28.5 +25.0 81 +41 +45 опасность
перегрева
1009.5 998.9
06 24.05 ЮЗ 2 15 км 6/4 600 м
[Cu med, cong Ac trans Ci sp]
+32.3 +24.3 63 +45 +55 опасность
перегрева
1007.1 996.6
09 24.05 Ю 1 15 км 8/5 600 м
[Cu med, cong Ac lent Ci sp]
+34.5 +23.8 54 +46 +48 опасность
перегрева
1004.3 990.8
12 24.05 С 1 3000 м дымка {туман} 8/5 600 м
[Cu med, cong Ac lent Ci sp]
+30.0 +25.0 75 +43 +43 опасность
перегрева
1006.0 995.5 +34.5
00 25.05 штиль 0 10 км 8/5 600 м
[Cu med, cong Ac lent Ci sp]
+26.5 +24.3 88 +37 +38 очень
душно
1006.7 996.1 +26.3
03 25.05 З 1 10 км 5/4 600 м
[Cu med, cong Ci sp]
+30.3 +24.9 73 +43 +55 опасность
перегрева
1006.8 996.2
06 25.05 Ю 1 15 км 8/5 600 м
[Cu med, cong Ac lent Ci sp]
+34.2 +25.2 60 +48 +57 опасность
перегрева
1005.7 993.6
09 25.05 Ю 1 15 км 9/6 600 м
[Cu Sc Ac As]
+32.0 +24.9 66 +45 +47 опасность
перегрева
1002.4 991.9

 

Местоположение метеостанции Аттапы (Лаос): широта 14.82 долгота 106.82 высота над уровнем моря 105 м.

В архиве по умолчанию представлена погода в Аттапы за последнюю неделю. Архивные данные за месяц целиком и за предыдущие месяцы, начиная с января 2011 года, Вы можете получить, выбрав интересующий диапазон дат из раскрывающегося списка и нажав кнопку "Ввод!".


*Определитесь, кто Вы:
робот инопланетянин человек

Внимание! Время в таблицах - всемирное. Для получения местного времени необходимо прибавить поправку, которая равна 7 ч.

Смотрите также архив погоды в соседних городах и на ближайших метеорологических станциях:

Погода в Секонге (Лаос) (60 км)
Погода в Сараване (Лаос) (108 км)
Погода в Паксе (Лаос) (117 км)
Погода в Плейку (Вьетнам) (158 км)
Погода в Хюэ (Вьетнам) (197 км)
Погода в Куангнгае (Вьетнам) (213 км)
Погода в Дананге (Вьетнам) (215 км)
Погода в Убонратчатхани (Таиланд) (216 км)
Погода в Буонметхуоте (Вьетнам) (274 км)
Погода в Си Сакет Агромете (Таиланд) (277 км)

Пояснения к столбцам:

Ветер - указаны скорость ветра в м/с - средняя за 10 мин, порывы в срок и между сроками (в фигурных скобках) и направление, откуда дует ветер: С - северный, СВ - северо-восточный, В - восточный, ЮВ - юго-восточный, Ю - южный, ЮЗ - юго-западный, З - западный, СЗ - северо-западный.
Видимость - горизонтальная дальность видимости в метрах или километрах. При видимости от 1 до 10 км при отсутствии осадков обычно наблюдается дымка, при ухудшении видимости до 1 км и менее - туман. В сухую погоду видимость может ухудшаться дымом, пылью или мглою.
Явления - указаны атмосферные явления, наблюдавшиеся в срок или в последний час перед сроком; фигурными скобками обозначены явления, наблюдавшиеся между сроками (за 1-3 часа до срока); квадратными скобками обозначены град или гололедные отложения с указанием их диаметра в мм.
Облачность - указаны через наклонную черту общая и нижняя облачность в баллах и высота нижней границы облаков в метрах; квадратными скобками обозначены формы облаков: Ci - перистые, Cs - перисто-слоистые, Cc - перисто-кучевые, Ac - высококучевые, As - высокослоистые, Sc - слоисто-кучевые, Ns - слоисто-дождевые, Cu - кучевые, Cb - кучево-дождевые. Подробнее классификацию облаков см. в Атласе облаков (PDF).
T - Температура воздуха - температура, измеренная на высоте 2 м над землей.
Td - Температура точки росы - температура, при понижении до которой содержащийся в воздухе водяной пар достигнет насыщения.
f - Относительная влажность воздуха - влажноcть воздуха, измеренная на высоте 2 м над землей.
Te - Эффективная температура - температура, которую ощущает одетый по сезону человек в тени. Характеристика душности погоды. При расчете учитывается влияние влажности воздуха и скорости ветра на теплоощущения человека.
Tes - Эффективная температура на солнце - температура, которую ощущает человек, с поправкой на солнечный нагрев. Характеристика знойности погоды. Зависит от высоты солнца над горизонтом, облачности и скорости ветра. Ночью, в пасмурную погоду, а также при ветре 12 м/с и более поправка равна нулю.
P - Атмосферное давление - приведенное к уровню моря атмосферное давление.
Po - Атмосферное давление - измеренное на уровне метеостанции атмосферное давление.
Tmin - Минимальная температура - минимум температуры воздуха на высоте 2 м над землей.
Tmax - Максимальная температура - максимум температуры воздуха на высоте 2 м над землей.
R - Количество осадков - Количество выпавших осадков за период времени, мм. При наведении курсора мыши на число - период времени, за который выпало указанное количество осадков.
R24 - Количество осадков - Количество выпавших осадков за 24 часа, мм.
S - Снежный покров - Высота снежного покрова, см. При наведении курсора мыши на число - состояние снежного покрова и степень покрытия местности в баллах.